Hourly Data Report for September 20, 2017

All times are specified in Local Standard Time (LST). Add 1 hour to adjust for Daylight Saving Time where and when it is observed.

CAPE DORSET A
NUNAVUT

64°13'49.000" N
76°31'30.000" W
48.20 m
2400637
71366
YTE

Download Data

Hourly Data (September 2017)
Hourly Data Report for September 20, 2017
Temp Definition
°C
Dew Point Temp Definition
°C
Rel Hum Definition
%
Wind Dir Definition
10's deg

Wind Spd Definition
km/h
Visibility Definition
km
Stn Press Definition
kPa
Hmdx Definition


Wind Chill Definition


Weather Definition


TIME
00:00 Legend Double Dagger 3.6 1.8 88 32 13 16.1 100.86     LegendNANA
01:00 Legend Double Dagger 3.4 1.9 90 32 13 16.1 100.90     LegendNANA
02:00 Legend Double Dagger 3.4 1.8 89 34 15 16.1 100.94     LegendNANA
03:00 Legend Double Dagger 2.3 1.7 96 35 17 16.1 101.03     LegendNANA
04:00 Legend Double Dagger 2.1 1.2 94 33 17 16.1 101.10     LegendNANA
05:00 Legend Double Dagger 1.8 0.6 92 34 18 16.1 101.14     LegendNANA
06:00 Legend Double Dagger 1.4 0.5 94 33 5 16.1 101.19     LegendNANA
07:00 Legend Double Dagger 1.7 0.8 94 2 8 16.1 101.22     LegendNANA
08:00 Legend Double Dagger 2.3 0.8 90 30 5 16.1 101.27     LegendNANA
09:00 Legend Double Dagger 3.6 1.3 85 33 13 16.1 101.29     LegendNANA
10:00 Legend Double Dagger 4.3 1.6 83 36 15 16.1 101.34     LegendNANA
11:00 Legend Double Dagger 4.5 1.4 80 1 15 16.1 101.38     LegendNANA
12:00 Legend Double Dagger 4.5 1.0 78 33 11 16.1 101.43     LegendNANA
13:00 Legend Double Dagger 3.6 1.0 83 32 18 16.1 101.47     LegendNANA
14:00 Legend Double Dagger 3.5 -0.4 76 31 17 16.1 101.47     LegendNANA
15:00 Legend Double Dagger 3.5 -0.5 75 33 11 16.1 101.52     LegendNANA
16:00 Legend Double Dagger 3.2 -0.4 77 31 13 16.1 101.57     LegendNANA
17:00 Legend Double Dagger 2.9 -0.6 78 33 13 16.1 101.56     LegendNANA
18:00 Legend Double Dagger 2.4 -1.0 78 29 5 16.1 101.56     LegendNANA
19:00 Legend Double Dagger 2.3 -1.0 79 30 8 16.1 101.58     LegendNANA
20:00 Legend Double Dagger 2.3 -1.0 79 30 11 16.1 101.59     LegendNANA
21:00 Legend Double Dagger 2.1 -1.2 79 32 5 16.1 101.57     LegendNANA
22:00 Legend Double Dagger 2.0 -0.4 84 28 9 16.1 101.58     LegendNANA
23:00 Legend Double Dagger 1.9 -0.4 85 32 13 16.1 101.58     LegendNANA

Notes on Data Quality.

Legend

  • E = Estimated
  • M = Missing
  • NA = Not Available
  • ‡ = Partner data that is not subject to review by the National Climate Archives
Date modified: